Tracking 26922 objects as of 31-Jan-2023
HD Live streaming from Space Station
objects crossing your sky now

OBJECT A

Track OBJECT A now!
10-day predictions


NORAD ID: 54372
Int'l Code: 2022-160A
Perigee: 499.9 km
Apogee: 507.1 km
Inclination: 35.0 °
Period: 94.5 minutes
Semi major axis: 6874 km
RCS: Unknown
Launch date: November 27, 2022
Source: People's Republic of China (PRC)
Launch site: Xichang Space Center, China (XSC)
Your satellite tracking list
Your tracking list is empty




NASA's NSSDC Master Catalog

Two Line Element Set (TLE):
1 54372U 22160A   23031.48029513  .00012100  00000-0  50087-3 0  9990
2 54372  34.9972 179.3941 0005237  65.2829 358.8248 15.23132584  9911
Source of the keplerian elements: AFSPC